Simultaneous Nadir Overpasses (SNOs) Predictions

Prediction of SNOs between GOES-15 and NOAA-20 Satellite Orbit:

Table of predicted SNOs for the next 14.0 days since TLE Epoch: 5/15/2021
Index Date Time (GOES-15) GOES-15 Lat,Lon NOAA-20 Lat,Lon Distance(km) Time Diff (sec)
1 05/17/2021 10:02:00 0.06,-128.22 0.23,-128.93 81.24 80
2 05/18/2021 09:40:36 0.06,-128.24 -0.78,-124.40 436.96 80
3 05/19/2021 22:02:33 -0.07,-128.21 -0.39,-129.71 171.27 80
4 05/20/2021 21:46:28 -0.07,-128.23 0.62,-125.18 347.31 80
5 05/22/2021 10:08:17 0.07,-128.32 0.55,-130.46 242.94 80
6 05/23/2021 09:46:52 0.07,-128.34 -0.46,-125.93 274.73 80
7 05/24/2021 22:08:50 -0.07,-128.29 -0.70,-131.24 335.47 80
8 05/25/2021 21:52:45 -0.06,-128.31 0.31,-126.71 182.25 80
9 05/27/2021 10:14:33 0.06,-128.40 0.86,-131.98 408.60 80
10 05/28/2021 09:53:09 0.06,-128.40 -0.15,-127.45 108.22 80
